SCP
0 0 0 0 0 0 0 0 0 0 0 0 0 0 0 0 0 0 0 0 0 0 0 0 0 0 0 0 0 0 0 0 0 0 0 1 1 1 1 1 1 1 1
0 0 0 0 0 0 0 0 0 0 0 0 0 0 0 0 0 0 0 0 0 0 0 0 0 0 0 0 0 0 0 0 0 0 0 1 1 1 1 1 1 1 1
0 0 0 0 0 0 0 0 0 0 0 0 0 0 0 0 0 0 0 0 0 0 0 0 0 0 0 0 0 0 0 0 0 0 0 0 1 1 1 1 1 1 1
0 0 0 0 0 0 0 0 0 0 0 0 0 0 0 0 0 0 0 0 0 0 0 0 0 0 0 0 0 0 0 0 1 0 0 1 1 1 1 1 1 1 1
0 0 0 0 0 0 0 0 0 0 0 0 0 0 0 0 0 0 0 0 0 0 0 0 0 0 0 0 0 0 0 0 1 1 0 1 1 1 1 1 1 1 1
0 0 0 0 0 0 0 0 0 0 0 0 0 0 0 0 0 0 0 0 0 0 0 0 0 0 0 0 0 0 0 0 0 0 0 1 1 1 1 1 1 1 1
0 0 0 0 0 0 0 0 0 0 0 0 0 0 0 0 0 0 0 0 0 0 0 0 0 0 0 0 0 0 0 0 0 0 0 1 1 1 1 1 1 1 1
0 0 0 0 0 0 0 0 0 0 0 0 0 0 0 0 0 0 0 0 0 0 0 0 0 0 0 0 0 0 0 0 0 0 0 0 1 1 1 1 1 1 1
0 0 0 0 0 0 0 0 0 0 0 0 0 0 0 0 0 0 0 0 0 0 0 0 0 0 0 0 0 0 0 0 0 0 0 0 0 0 1 1 1 1 1
0 0 0 0 0 0 0 0 0 0 0 0 0 0 0 0 0 0 0 0 0 0 0 0 0 0 0 0 0 0 0 0 0 0 0 0 0 0 0 1 1 1 1
0 0 0 0 0 0 0 0 0 0 0 0 0 0 0 0 0 0 0 0 0 0 0 0 0 0 0 0 0 0 0 0 0 1 1 1 1 1 1 1 1 1 1
0 0 0 0 0 0 0 0 0 0 0 0 0 0 0 0 0 0 0 0 0 0 0 0 0 0 0 0 0 0 0 0 0 1 1 1 1 1 1 1 1 1 1
0 0 0 0 0 0 0 0 0 0 0 0 0 0 0 1 0 0 0 0 0 0 0 0 0 0 0 0 0 0 0 0 0 1 1 1 1 1 1 1 1 1 1
0 0 0 0 0 0 0 0 0 0 0 0 0 0 1 1 0 0 0 0 0 0 0 0 0 0 0 0 0 0 0 0 0 1 1 1 1 1 1 2 2 2 2
1 0 0 0 0 0 0 0 0 0 0 0 0 0 0 0 0 0 0 0 0 0 0 0 0 0 0 0 0 0 0 0 0 1 1 1 1 1 1 1 2 2 1
1 1 0 0 0 0 0 0 0 0 0 0 0 0 0 0 0 0 0 0 0 0 0 0 0 0 0 0 0 0 0 0 0 1 1 1 1 1 1 1 1 1 1
1 1 0 0 0 0 0 0 0 0 0 0 0 0 0 0 0 0 0 0 0 0 0 0 0 0 0 0 0 0 0 0 1 1 1 1 1 1 1 1 1 1 1
1 1 0 0 0 0 0 0 0 0 0 0 0 0 0 0 0 0 0 0 0 0 0 0 0 0 0 0 0 0 0 0 1 1 1 1 1 1 1 1 1 1 1
1 1 0 0 0 0 0 0 0 1 1 1 1 0 0 0 0 0 0 0 0 0 0 0 0 0 0 0 0 0 0 0 1 1 1 1 1 1 1 1 1 1 1
1 1 0 0 0 0 0 0 0 1 1 1 1 1 0 0 0 0 0 0 0 0 0 0 0 0 0 0 0 0 0 0 1 1 0 0 1 1 1 0 0 1 1
1 0 0 0 0 0 0 0 1 1 1 1 1 1 0 0 0 0 0 0 0 0 0 0 0 0 0 0 0 0 0 0 0 0 0 0 0 1 1 0 0 0 1
0 0 0 0 0 0 0 0 1 1 1 1 1 0 0 0 0 0 0 0 0 0 0 0 0 0 0 0 0 0 0 0 0 0 0 0 1 1 1 0 0 0 0
0 0 0 1 0 0 0 0 1 1 1 0 0 0 0 0 0 0 0 0 0 0 0 0 0 0 0 0 0 0 0 0 0 0 0 0 1 1 1 0 0 0 0
1 0 0 0 0 0 0 1 1 1 0 0 0 0 0 0 0 0 0 0 0 0 0 0 0 0 0 0 0 0 0 0 0 0 0 0 1 1 1 1 0 0 0
1 1 1 0 0 0 1 1 1 0 0 0 0 0 0 0 0 0 0 0 0 0 0 0 0 0 0 0 0 0 0 0 0 0 0 0 0 0 1 1 0 0 0
0 1 1 1 0 0 1 1 0 0 0 0 0 0 0 0 0 0 0 0 0 0 0 0 0 0 0 0 0 0 0 0 0 0 0 0 0 0 1 1 0 0 0
Wind_Speed
5 5 5 6 6 7 7 8 8 8 8 9 10 10 10 11 10 10 11 11 11 11 11 11 12 12 10 9 9 9 10 10 11 9 7 5 5 6 5 5 5 5 5
5 5 6 6 7 8 8 8 8 9 9 10 10 11 11 11 11 11 12 12 12 12 12 12 12 10 11 11 10 11 10 9 11 12 9 6 6 5 5 5 4 3 2
5 6 6 7 7 8 8 8 9 9 10 10 10 11 11 11 11 11 11 12 12 12 12 12 12 12 12 11 11 11 10 10 10 10 10 7 6 5 5 4 4 2 1
5 6 7 7 8 8 8 9 9 9 10 11 11 11 11 11 11 11 12 12 12 12 12 12 13 13 13 12 11 12 11 11 10 10 10 8 7 6 5 4 4 3 2
6 7 7 7 7 8 9 9 9 10 11 10 11 11 11 11 10 9 10 12 12 12 12 13 13 12 11 10 10 10 11 10 10 10 10 9 8 6 6 5 4 3 2
6 7 7 8 8 8 9 9 9 10 10 10 11 11 12 10 4 4 10 13 13 13 13 13 13 13 14 15 15 15 14 13 13 11 10 10 9 8 6 5 4 4 3
6 7 8 8 8 9 9 10 10 10 10 10 11 11 12 10 6 7 10 12 14 13 13 12 12 11 11 13 15 19 20 20 18 15 14 12 10 8 7 7 6 6 4
7 7 8 8 9 9 9 10 10 9 10 10 11 11 11 10 6 8 9 13 14 14 14 14 13 13 13 12 13 14 15 16 17 17 15 14 12 8 8 7 5 4 3
7 7 8 8 9 9 10 10 10 10 10 10 10 11 11 11 7 7 9 11 11 13 13 13 13 13 11 9 13 15 14 13 14 14 13 12 8 6 6 6 6 5 4
7 7 7 8 9 10 10 10 10 9 10 11 10 10 11 11 7 6 8 10 11 11 10 11 11 12 10 8 13 14 14 14 13 12 14 13 14 12 11 10 8 7 5
7 7 8 8 9 10 10 9 10 10 10 11 11 11 11 10 8 8 9 9 10 10 9 9 8 6 10 10 12 13 13 11 11 11 11 12 12 12 12 13 11 8 7
7 8 9 9 9 8 9 10 10 10 11 11 10 10 9 7 7 5 7 10 11 11 10 9 6 2 7 9 11 12 11 10 10 9 9 10 10 11 11 11 12 11 8
8 9 9 9 9 9 9 10 10 9 9 9 9 9 8 7 5 7 10 11 12 10 9 9 9 8 9 10 14 13 11 11 11 10 10 10 10 10 9 9 10 10 9
9 9 9 9 9 9 7 8 8 8 9 9 9 9 9 8 7 5 5 6 9 11 10 9 12 13 12 10 7 10 11 11 10 10 10 9 8 8 8 8 8 8 8
9 9 9 9 9 8 8 8 9 9 8 9 10 10 10 10 6 5 8 8 8 7 8 8 8 7 7 7 8 8 9 9 10 10 9 8 8 8 8 8 8 8 8
9 9 8 8 7 8 8 8 8 10 9 12 14 13 11 11 11 10 10 11 11 8 7 9 8 7 7 7 7 7 8 9 9 9 8 8 9 9 9 8 8 8 9
10 9 8 8 8 8 8 9 9 8 12 15 16 15 15 14 13 12 12 11 11 9 8 9 8 7 6 6 6 7 7 8 8 8 8 8 8 8 8 9 9 8 9
11 9 9 9 9 9 9 9 9 9 9 8 8 13 14 14 14 13 10 8 8 9 9 9 8 7 6 6 6 6 6 6 7 7 8 8 8 8 9 9 9 10 9
10 9 8 8 8 9 9 9 9 10 9 8 8 5 9 11 12 11 9 8 8 7 7 7 7 6 6 6 6 6 6 6 7 7 7 8 7 8 8 8 8 9 9
10 11 10 9 9 9 9 9 9 8 8 8 7 7 6 6 6 5 6 7 7 7 7 7 6 6 5 5 5 5 6 7 7 7 7 7 8 8 9 10 8 8 9
10 9 11 10 10 9 8 9 8 8 8 7 7 6 5 8 7 7 6 6 6 6 6 6 6 6 6 5 5 6 7 6 6 7 7 8 8 8 8 8 8 8 8
9 9 9 9 8 8 8 8 8 8 8 8 7 5 4 6 6 6 6 6 5 5 5 5 5 5 5 5 5 5 6 6 7 7 7 7 7 8 8 8 8 7 8
10 10 10 9 8 7 8 9 8 8 8 7 6 6 5 5 6 6 6 5 5 4 4 4 5 5 4 4 4 5 5 5 6 6 7 7 8 8 8 8 9 8 9
10 11 11 9 8 8 8 7 7 8 7 6 5 5 5 5 6 6 6 5 5 5 4 4 5 5 6 4 4 4 4 3 5 5 7 7 7 7 7 8 8 10 9
10 10 10 9 8 8 7 7 7 6 6 5 5 5 5 5 5 5 5 5 5 5 5 4 3 4 5 5 4 3 1 1 3 4 5 6 7 8 8 9 8 9 9
10 10 9 8 7 6 6 6 5 6 5 5 4 4 4 4 4 5 5 5 5 4 4 3 4 4 5 4 2 2 1 2 3 4 6 6 7 7 8 7 10 9 11
Wind_Direction
251 260 272 276 283 283 281 283 286 286 286 282 283 283 281 278 274 268 267 271 265 264 264 259 256 261 266 266 260 256 254 255 264 272 271 270 274 283 284 272 248 238 218
258 262 265 274 280 282 285 289 288 285 283 284 284 282 281 280 277 272 268 269 266 264 263 264 263 259 255 258 263 262 260 260 261 269 274 269 260 265 273 271 256 239 230
264 264 270 277 282 284 289 289 288 287 286 286 284 281 281 282 279 276 272 270 268 266 264 262 261 260 259 258 258 259 258 253 251 258 262 263 260 252 259 255 247 232 217
272 276 279 284 287 288 289 289 288 288 288 286 285 283 282 281 278 275 273 272 270 268 265 262 261 259 257 256 256 255 258 260 255 255 256 253 247 239 236 239 234 220 201
278 283 286 289 288 286 287 288 289 289 288 288 287 284 282 279 274 281 285 280 275 271 268 264 260 259 267 267 267 264 258 254 253 248 250 249 243 234 234 228 227 209 205
275 284 290 291 288 288 290 290 290 291 291 289 286 286 284 282 312 301 282 284 280 274 271 268 265 252 243 236 246 258 267 265 262 260 253 250 248 242 236 234 220 203 208
274 283 288 289 289 292 294 296 297 296 293 291 289 287 286 287 273 256 257 273 274 273 271 269 266 264 251 248 235 231 240 245 253 262 265 262 257 243 237 230 221 212 211
275 283 288 289 290 293 294 297 298 296 296 293 291 291 290 288 271 257 257 264 267 268 267 266 266 268 264 264 262 253 246 237 231 234 247 255 259 261 242 234 235 217 195
277 285 290 293 292 293 295 299 300 297 295 294 292 292 288 286 265 250 259 276 269 269 269 268 267 267 261 251 259 260 258 254 241 236 241 249 266 274 256 236 214 207 200
282 288 291 290 288 290 295 297 297 295 291 294 296 293 289 287 279 248 252 274 276 277 275 270 258 256 270 252 255 256 255 253 252 231 221 228 235 231 222 231 226 212 201
286 287 285 286 285 284 289 290 291 291 294 293 293 290 286 281 273 244 237 268 282 285 283 279 277 229 237 244 250 258 259 268 260 250 241 230 224 224 219 216 217 216 207
280 281 283 285 286 289 288 288 289 290 289 287 289 290 288 279 267 255 232 247 272 280 280 280 285 257 247 248 245 251 252 256 253 248 239 234 227 220 215 212 209 211 210
273 277 281 284 283 282 284 286 285 284 286 296 299 299 299 299 277 223 234 244 247 260 276 288 290 279 267 249 239 239 236 235 238 238 235 232 229 226 217 204 204 201 198
267 273 276 278 279 280 280 282 288 294 295 299 302 302 302 298 295 291 278 255 236 243 259 262 244 245 248 257 244 218 224 230 231 234 235 233 227 217 212 204 197 188 188
263 268 273 275 278 284 279 280 286 289 295 293 299 302 300 297 322 345 308 298 300 313 310 285 271 254 239 234 232 229 225 220 223 229 230 230 223 214 210 203 196 189 190
260 264 270 274 280 281 284 283 253 247 253 245 250 264 282 280 291 289 279 272 273 276 275 267 267 262 256 248 240 230 222 222 222 223 223 224 221 212 207 201 197 196 193
256 266 274 278 279 279 283 287 292 273 238 237 240 243 248 268 277 277 274 270 262 247 248 258 261 260 256 252 246 240 231 224 220 219 219 220 219 214 207 203 198 197 196
253 257 256 265 270 276 280 282 284 290 295 294 250 229 236 247 256 260 260 262 254 228 244 255 257 256 252 246 242 238 235 227 218 216 218 217 216 212 207 206 202 199 195
251 255 255 264 270 272 275 276 278 284 289 298 305 278 228 238 239 242 233 248 266 266 259 259 257 253 250 246 238 230 227 224 216 212 215 214 212 212 209 208 205 196 198
247 246 250 263 267 269 271 275 279 284 288 295 299 303 302 288 283 261 239 254 265 270 271 270 264 256 250 249 244 235 226 223 218 213 212 211 212 213 211 208 205 199 198
258 246 215 241 257 264 272 278 282 286 289 294 298 309 310 297 295 293 288 281 280 278 275 275 271 260 251 247 240 235 231 226 220 215 212 209 208 208 208 208 206 206 201
261 263 257 251 259 266 273 278 280 280 284 290 296 295 244 274 291 292 290 288 289 285 276 270 269 262 256 250 243 239 235 228 223 215 210 207 205 207 205 203 203 202 200
258 260 259 255 256 255 256 263 270 276 281 289 301 307 302 299 299 299 300 298 296 297 290 277 272 270 266 257 251 247 242 234 228 216 206 205 206 206 203 199 201 197 198
261 258 259 259 257 259 262 267 270 274 281 290 299 305 305 306 305 305 307 307 304 303 298 289 284 286 282 269 253 246 242 249 246 233 221 216 213 209 205 198 198 199 198
270 264 261 260 260 260 264 269 273 280 288 293 297 303 306 310 313 313 316 314 310 307 306 300 294 292 287 278 264 259 328 327 293 280 236 227 222 214 208 203 196 192 191
271 267 265 263 262 263 268 273 275 279 283 291 296 307 312 314 318 319 324 326 324 329 327 318 313 305 294 280 308 6 341 282 267 278 265 235 226 218 209 207 203 195 190